Flag for U.S.A. Weather past 2 weeks in Jacksonville, Florida, U.S.A.

Now
68 °F

Overcast.


Feels Like: 68 °F
Forecast: 58 / 68 °F
Wind: 20 mph from Northeast

Location: Jacksonville Naval Air Station


UV Index: 5 (Moderate)

Visibility: 7 mi


Pressure: 30.31 "Hg

Humidity: 73%

Dew point: 59 °F

Location of JacksonvilleLocation

Historic Weather in Jacksonville

°F

Jacksonville temperature yesterday

Maximum temperature yesterday: 64 °F (at 2:53 PM)
Minimum temperature yesterday: 49 °F (at 3:53 AM)
Average temperature yesterday: 57 °F

Past Weeks' High & Low Weather Summary

 TemperatureHumidityPressure
High87 °F (Apr 3, 4:53 PM)93% (Apr 8, 7:53 AM)30.31 "Hg (Apr 8, 7:53 AM)
Low49 °F (Apr 16, 3:53 AM)26% (Apr 10, 12:53 PM)29.66 "Hg (Apr 8, 5:53 PM)
Average71 °F65%30.04 "Hg
* Reported Apr 2 10:53 AM — Apr 17 10:53 AM, Jacksonville, Weather by CustomWeather, © 2014

Note: Actual official high and low records may vary slightly from our data, if they occured in-between our weather recording intervals... More about our weather records

Advertising

Historic Weather Conditions — Data for Previous 24 hours

 ConditionsComfort  
Time TempWeatherWind HumidityBarometerVisibility
10:53 AM
Apr 17
68 °FOvercast.20 mph73%30.31 "Hg7 mi
9:53 AM66 °FOvercast.22 mph75%30.27 "Hg6 mi
8:53 AM65 °FFog.18 mph78%30.26 "Hg6 mi
7:53 AM64 °FFog.17 mph81%30.24 "Hg6 mi
6:53 AM64 °FFog.22 mph78%30.21 "Hg6 mi
5:53 AM64 °FOvercast.18 mph81%30.19 "Hg9 mi
4:53 AM64 °FMostly cloudy.18 mph78%30.19 "Hg10 mi
3:53 AM63 °FMostly cloudy.17 mph75%30.19 "Hg10 mi
2:53 AM63 °FMostly cloudy.17 mph75%30.20 "Hg10 mi
1:53 AM63 °FPartly cloudy.14 mph75%30.21 "Hg10 mi
12:53 AM62 °FPassing clouds.18 mph75%30.21 "Hg10 mi
11:53 PM
Apr 16
62 °FPassing clouds.12 mph75%30.24 "Hg10 mi
10:53 PM61 °FPassing clouds.15 mph72%30.22 "Hg10 mi
9:53 PM60 °FPassing clouds.20 mph69%30.22 "Hg10 mi
8:53 PM60 °FBroken clouds.20 mph65%30.22 "Hg10 mi
7:53 PM60 °FPartly sunny.18 mph65%30.21 "Hg10 mi
6:53 PM61 °FOvercast.20 mph65%30.20 "Hg10 mi
5:53 PM62 °FOvercast.23 mph65%30.20 "Hg10 mi
4:53 PM61 °FOvercast.20 mph67%30.20 "Hg10 mi
3:53 PM63 °FOvercast.21 mph63%30.19 "Hg10 mi
2:53 PM64 °FPartly sunny.15 mph56%30.20 "Hg10 mi
1:53 PM62 °FPartly sunny.18 mph56%30.22 "Hg10 mi
12:53 PM63 °FPartly sunny.18 mph56%30.22 "Hg10 mi
11:53 AM61 °FPartly sunny.21 mph58%30.22 "Hg10 mi
Weather by CustomWeather, © 2014

See weather overview